EDT,Max TemperatureF,Mean TemperatureF,Min TemperatureF,Max Dew PointF,MeanDew PointF,Min DewpointF,Max Humidity, Mean Humidity, Min Humidity, Max Sea Level PressureIn, Mean Sea Level PressureIn, Min Sea Level PressureIn, Max VisibilityMiles, Mean VisibilityMiles, Min VisibilityMiles, Max Wind SpeedMPH, Mean Wind SpeedMPH, Max Gust SpeedMPH,PrecipitationIn, CloudCover, Events, WindDirDegrees
2011-10-1,52,45,37,50,40,35,100,95,89,29.96,29.86,29.73,10,7,2,15,8,21,0.29,8,Rain,22
2011-10-2,53,46,39,50,43,37,100,95,89,29.95,29.91,29.88,10,5,0,17,8,22,0.01,8,Fog-Rain,53
2011-10-3,62,54,46,51,47,45,100,78,55,30.06,30.00,29.91,10,5,0,9,3,20,0.04,7,Fog-Rain,52
2011-10-4,56,53,49,52,50,48,96,90,83,30.09,30.06,30.03,10,7,1,9,3,26,0.05,8,Rain,351
2011-10-5,55,41,26,48,41,24,100,68,35,30.32,30.11,30.03,10,10,2,16,5,29,0.00,5,,336
2011-10-6,54,38,21,34,24,19,100,63,26,30.40,30.35,30.29,10,8,0,10,2,16,0.00,1,Fog,334
2011-10-7,66,46,26,45,35,25,100,72,43,30.48,30.42,30.38,10,9,0,10,2,15,0.00,2,Fog,223
2011-10-8,77,56,35,48,40,34,100,65,29,30.51,30.44,30.40,10,8,0,14,3,21,0.00,2,Fog,217
2011-10-9,76,56,35,52,44,34,100,68,36,30.45,30.37,30.30,10,10,7,14,4,20,0.00,0,,225
2011-10-10,73,56,39,55,46,39,100,77,53,30.31,30.26,30.21,10,4,0,9,2,17,0.00,1,Fog,230
2011-10-11,70,52,33,42,36,26,100,60,20,30.29,30.22,30.17,10,8,2,9,2,12,0.00,0,,61
2011-10-12,67,54,41,49,44,40,96,71,45,30.18,30.10,30.00,10,10,7,14,2,18,0.00,3,,228
2011-10-13,65,56,47,56,52,46,100,87,73,29.98,29.82,29.69,10,9,6,10,4,15,0.25,6,Rain,90
2011-10-14,65,58,51,61,56,50,93,86,78,29.68,29.45,29.24,10,8,2,25,7,30,0.72,7,Rain,153
2011-10-15,51,46,41,50,42,37,93,80,66,29.47,29.34,29.24,10,8,2,26,17,41,0.60,8,Rain,227
2011-10-16,52,47,42,45,40,34,92,72,52,29.68,29.58,29.46,10,8,2,22,11,39,0.29,8,Rain,236
2011-10-17,47,41,35,41,39,34,100,80,60,29.66,29.58,29.51,10,8,2,21,9,33,0.18,7,Rain,233
2011-10-18,51,44,37,43,40,37,96,79,61,29.94,29.75,29.63,10,8,3,20,6,28,0.01,7,Rain,233
2011-10-19,58,47,36,46,41,36,100,79,57,29.95,29.83,29.60,10,10,10,18,8,24,0.01,6,Rain,62
2011-10-20,65,54,43,55,49,37,93,78,63,29.56,29.38,29.27,10,8,1,31,11,40,0.34,7,Rain-Thunderstorm,179
2011-10-21,48,45,41,46,41,38,96,89,82,29.93,29.72,29.53,10,7,1,15,8,23,0.10,8,Rain,225
2011-10-22,43,39,34,40,39,35,100,91,82,30.08,29.98,29.89,10,8,2,10,4,14,0.03,8,Rain,247
2011-10-23,46,38,29,38,35,29,100,83,65,30.12,30.08,30.04,10,8,1,9,1,10,0.00,6,,229
2011-10-24,60,43,25,46,34,24,100,72,44,30.10,29.96,29.81,10,6,0,22,6,32,0.28,5,Fog-Rain,217
2011-10-25,45,37,28,40,35,28,100,79,58,30.03,29.93,29.86,10,8,1,16,7,24,0.01,6,Rain,251
2011-10-26,44,36,28,36,33,28,100,79,58,30.03,29.86,29.77,10,9,6,7,1,14,0.05,8,Rain,350
2011-10-27,34,30,26,34,27,19,100,81,61,29.98,29.81,29.76,10,9,5,10,5,14,T,8,Snow,46
2011-10-28,39,28,16,25,19,13,92,68,44,30.26,30.16,30.01,10,10,10,13,2,20,0.00,1,,313
2011-10-29,35,26,16,25,20,14,92,74,56,30.26,30.17,30.04,10,10,10,14,4,17,0.00,3,,49
2011-10-30,42,33,23,24,21,16,92,65,37,30.28,30.14,30.02,10,10,10,13,4,21,0.00,2,,337
2011-10-31,47,33,18,29,24,15,92,65,38,30.36,30.30,30.26,10,10,10,15,3,18,0.00,1,,193